Location: Dunn (historical)
(35.2693°N, 90.5721°W)
Time: 03:22:03
(UTC+00:00)

MOS 1 Rocket - Pass Details

Date: 13 February 2026
Orbit: 608 x 814 km, 97.4° (Epoch: 6 March)

Event Time Altitude Azimuth Distance (km) Brightness Sun altitude
Rises 12:14:57 0° 11° (N) 2,906 6.5 -7.9°
Reaches altitude 10° 12:17:06 10° 11° (N) 2,014 5.7 -7.5°
Maximum altitude 12:21:29 87° 281° (W) 656 3.2 -6.6°
Drops below altitude 10° 12:26:04 10° 194° (SSW) 2,104 5.8 -5.7°
Sets 12:28:22 0° 194° (SSW) 3,048 6.6 -5.2°
